[TLELIST] Archives

 

[TLELIST] Current TLEs

September 21st 2025 PDT

0 HST 1 20580U 90037B 25264.26049816 .00008176 00000-0 29702-3 0 9994 2 20580 28.4668 113.2151 0002755 51.0610 309.0230 15.26400228747372 0 ISS (ZARYA) 1 25544U 98067A 25264.11993844 .00016413 00000-0 29015-3 0 9993 2 25544 51.6341 191.5777 0004375 2.4569 357.6441 15.50464492530046 0 CXO 1 25867U 99040B 25267.28468475 .00000866 00000-0 00000-0 0 9996 2 25867 51.4889 125.5367 8267597 310.4652 0.4504 0.37809440 16318 ...Continue Reading

[TLELIST] Current TLEs

September 20th 2025 PDT

0 HST 1 20580U 90037B 25262.88746375 .00006850 00000-0 24776-3 0 9997 2 20580 28.4671 122.5383 0002763 36.8967 323.1818 15.26379461747161 0 ISS (ZARYA) 1 25544U 98067A 25263.15311495 .00015260 00000-0 27067-3 0 9996 2 25544 51.6337 196.3707 0004371 358.2759 1.8214 15.50431661529895 0 CXO 1 25867U 99040B 25264.64061064 .00000851 00000-0 00000-0 0 9990 2 25867 51.4661 125.6055 8273394 310.4746 0.4854 0.37809678 16307 ...Continue Reading

[TLELIST] Current TLEs

September 19th 2025 PDT

0 HST 1 20580U 90037B 25261.84133014 .00006172 00000-0 22256-3 0 9990 2 20580 28.4672 129.6402 0002530 25.9320 334.1401 15.26365194747007 0 ISS (ZARYA) 1 25544U 98067A 25262.12181519 .00014081 00000-0 25067-3 0 9992 2 25544 51.6335 201.4846 0004394 354.7362 5.3580 15.50399466529735 0 CXO 1 25867U 99040B 25264.64061064 .00000851 00000-0 00000-0 0 9990 2 25867 51.4661 125.6055 8273394 310.4746 0.4854 0.37809678 16307 ...Continue Reading

[TLELIST] Current TLEs

September 19th 2025 PDT

0 HST 1 20580U 90037B 25261.84133014 .00006172 00000-0 22256-3 0 9990 2 20580 28.4672 129.6402 0002530 25.9320 334.1401 15.26365194747007 0 ISS (ZARYA) 1 25544U 98067A 25262.12181519 .00014081 00000-0 25067-3 0 9992 2 25544 51.6335 201.4846 0004394 354.7362 5.3580 15.50399466529735 0 CXO 1 25867U 99040B 25264.64061064 .00000851 00000-0 00000-0 0 9990 2 25867 51.4661 125.6055 8273394 310.4746 0.4854 0.37809678 16307 ...Continue Reading

[TLELIST] Current TLEs

September 18th 2025 PDT

0 HST 1 20580U 90037B 25261.05672437 .00006481 00000-0 23415-3 0 9991 2 20580 28.4676 134.9664 0002541 18.9937 341.0752 15.26356338746889 0 ISS (ZARYA) 1 25544U 98067A 25261.15495302 .00009099 00000-0 16508-3 0 9995 2 25544 51.6329 206.2777 0004341 352.6018 7.4906 15.50367586529587 0 CXO 1 25867U 99040B 25259.35019206 .00000941 00000-0 00000-0 0 9993 2 25867 51.3649 125.8051 8285650 310.4265 0.3581 0.37804868 16283 ...Continue Reading

[TLELIST] Current TLEs

September 17th 2025 PDT

0 HST 1 20580U 90037B 25260.07596046 .00006939 00000-0 25136-3 0 9993 2 20580 28.4679 141.6244 0002538 9.5089 350.5553 15.26344280746732 0 ISS (ZARYA) 1 25544U 98067A 25260.12361477 .00008550 00000-0 15572-3 0 9997 2 25544 51.6329 211.3907 0004353 348.5756 11.5133 15.50345634529426 0 CXO 1 25867U 99040B 25259.35019206 .00000941 00000-0 00000-0 0 9993 2 25867 51.3649 125.8051 8285650 310.4265 0.3581 0.37804868 16283 ...Continue Reading

[TLELIST] Current TLEs

September 16th 2025 PDT

0 HST 1 20580U 90037B 25259.02980319 .00007036 00000-0 25510-3 0 9991 2 20580 28.4678 148.7266 0002470 358.6989 1.3599 15.26330207746572 0 ISS (ZARYA) 1 25544U 98067A 25259.15672217 .00010925 00000-0 19686-3 0 9994 2 25544 51.6329 216.1838 0004347 344.8645 15.2213 15.50326031529274 0 CXO 1 25867U 99040B 25259.35019206 .00000941 00000-0 00000-0 0 9993 2 25867 51.3649 125.8051 8285650 310.4265 0.3581 0.37804868 16283 ...Continue Reading

[TLELIST] Current TLEs

September 15th 2025 PDT

0 HST 1 20580U 90037B 25257.98363641 .00005715 00000-0 20580-3 0 9991 2 20580 28.4675 155.8287 0002391 347.6375 12.4161 15.26314486746412 0 ISS (ZARYA) 1 25544U 98067A 25258.12535402 .00014378 00000-0 25658-3 0 9996 2 25544 51.6329 221.2965 0004312 341.0386 19.0441 15.50311716529117 0 CXO 1 25867U 99040B 25259.35019206 .00000941 00000-0 00000-0 0 9993 2 25867 51.3649 125.8051 8285650 310.4265 0.3581 0.37804868 16283 ...Continue Reading

[TLELIST] Current TLEs

September 14th 2025 PDT

0 HST 1 20580U 90037B 25257.06823216 .00005475 00000-0 19691-3 0 9993 2 20580 28.4676 162.0431 0002335 337.8451 22.2043 15.26304369746279 0 ISS (ZARYA) 1 25544U 98067A 25257.15843506 .00007863 00000-0 14416-3 0 9996 2 25544 51.6331 226.0896 0004303 337.3187 22.7612 15.50283896528963 0 CXO 1 25867U 99040B 25259.35019206 .00000941 00000-0 00000-0 0 9993 2 25867 51.3649 125.8051 8285650 310.4265 0.3581 0.37804868 16283 ...Continue Reading

[TLELIST] Current TLEs

September 13th 2025 PDT

0 HST 1 20580U 90037B 25256.15282209 .00005155 00000-0 18498-3 0 9992 2 20580 28.4676 168.2573 0002277 327.6672 32.3782 15.26294249746133 0 ISS (ZARYA) 1 25544U 98067A 25256.06257952 .00007066 00000-0 13046-3 0 9992 2 25544 51.6331 231.5214 0004290 333.0266 27.0500 15.50263553528797 0 CXO 1 25867U 99040B 25256.70546091 .00000950 00000-0 00000-0 0 9996 2 25867 51.3103 125.9192 8290651 310.3781 0.4168 0.37806980 16272 ...Continue Reading
  • This mailing list is a public mailing list - anyone may join or leave, at any time.
  • This mailing list is announce-only.

International Space Station (ISS) / Hubble Space Telescope (HST) / Chandra X-Ray Observatory Orbital Data via EMAIL

Privacy Policy:

Private list